Time,TemperatureF,DewpointF,PressureIn,WindDirection,WindDirectionDegrees,WindSpeedMPH,WindSpeedGustMPH,Humidity,HourlyPrecipIn,Conditions,Clouds,dailyrainin,SoftwareType,DateUTC
2013-01-14 00:01:00,49.0,48.0,29.96,SW,225,9.0,11.0,97,0.00,,,0.00,Rainwise IP-100,2013-01-14 05:01:00,
2013-01-14 00:03:00,50.0,49.0,29.95,SSW,202,9.0,11.0,97,0.00,,,0.00,Rainwise IP-100,2013-01-14 05:03:00,
2013-01-14 00:08:00,50.0,49.0,29.95,South,180,9.0,10.0,97,0.00,,,0.00,Rainwise IP-100,2013-01-14 05:08:00,
2013-01-14 00:13:00,50.0,49.0,29.94,South,180,7.0,9.0,97,0.00,,,0.00,Rainwise IP-100,2013-01-14 05:13:00,
2013-01-14 00:18:00,50.0,49.0,29.94,South,180,7.0,9.0,97,0.00,,,0.00,Rainwise IP-100,2013-01-14 05:18:00,
2013-01-14 00:23:00,50.0,49.0,29.94,SSW,202,8.0,10.0,97,0.00,,,0.00,Rainwise IP-100,2013-01-14 05:23:00,
2013-01-14 00:28:00,50.0,49.0,29.94,SSW,202,6.0,10.0,97,0.00,,,0.00,Rainwise IP-100,2013-01-14 05:28:00,
2013-01-14 00:33:00,50.0,49.0,29.93,SSW,202,6.0,9.0,97,0.00,,,0.00,Rainwise IP-100,2013-01-14 05:33:00,
2013-01-14 00:38:00,50.0,49.0,29.93,SSW,202,8.0,9.0,96,0.00,,,0.00,Rainwise IP-100,2013-01-14 05:38:00,
2013-01-14 00:43:00,50.0,49.0,29.93,South,180,6.0,9.0,97,0.00,,,0.00,Rainwise IP-100,2013-01-14 05:43:00,
2013-01-14 00:48:00,50.0,49.0,29.93,South,180,6.0,8.0,97,0.00,,,0.00,Rainwise IP-100,2013-01-14 05:48:00,
2013-01-14 00:53:00,49.0,48.0,29.94,South,180,7.0,9.0,97,0.00,,,0.00,Rainwise IP-100,2013-01-14 05:53:00,
2013-01-14 00:58:00,48.0,47.5,29.94,South,180,4.0,8.0,97,0.00,,,0.00,Rainwise IP-100,2013-01-14 05:58:00,
2013-01-14 01:03:00,48.0,47.5,29.93,SSW,202,0.0,4.0,97,0.00,,,0.00,Rainwise IP-100,2013-01-14 06:03:00,
2013-01-14 01:08:00,48.0,47.5,29.93,SW,225,1.0,3.0,97,0.00,,,0.00,Rainwise IP-100,2013-01-14 06:08:00,
2013-01-14 01:13:00,49.0,48.0,29.93,SW,225,6.0,7.0,97,0.00,,,0.00,Rainwise IP-100,2013-01-14 06:13:00,
2013-01-14 01:18:00,48.0,47.5,29.93,SSE,157,6.0,7.0,97,0.00,,,0.00,Rainwise IP-100,2013-01-14 06:18:00,
2013-01-14 01:23:00,48.0,47.5,29.94,South,180,9.0,12.0,97,0.00,,,0.00,Rainwise IP-100,2013-01-14 06:23:00,
2013-01-14 01:28:00,49.0,48.0,29.94,SW,225,8.0,13.0,97,0.00,,,0.00,Rainwise IP-100,2013-01-14 06:28:00,
2013-01-14 01:33:00,49.0,48.0,29.93,SSW,202,8.0,13.0,97,0.00,,,0.00,Rainwise IP-100,2013-01-14 06:33:00,
2013-01-14 01:38:00,49.0,48.0,29.93,SSW,202,9.0,12.0,97,0.00,,,0.00,Rainwise IP-100,2013-01-14 06:38:00,
2013-01-14 01:43:00,49.0,48.0,29.93,SW,225,9.0,13.0,97,0.00,,,0.00,Rainwise IP-100,2013-01-14 06:43:00,
2013-01-14 01:48:00,49.0,48.0,29.93,SW,225,8.0,12.0,97,0.00,,,0.00,Rainwise IP-100,2013-01-14 06:48:00,
2013-01-14 01:53:00,49.0,48.0,29.92,South,180,7.0,9.0,97,0.00,,,0.00,Rainwise IP-100,2013-01-14 06:53:00,
2013-01-14 01:58:00,49.0,48.0,29.92,South,180,6.0,8.0,97,0.00,,,0.00,Rainwise IP-100,2013-01-14 06:58:00,
2013-01-14 02:03:00,49.0,48.0,29.92,SW,225,8.0,9.0,97,0.00,,,0.00,Rainwise IP-100,2013-01-14 07:03:00,
2013-01-14 02:08:00,48.0,47.5,29.92,SSE,157,6.0,9.0,97,0.00,,,0.00,Rainwise IP-100,2013-01-14 07:08:00,
2013-01-14 02:13:00,48.0,47.5,29.93,SSE,157,7.0,7.0,97,0.00,,,0.00,Rainwise IP-100,2013-01-14 07:13:00,
2013-01-14 02:18:00,48.0,47.5,29.93,SW,225,8.0,13.0,97,0.00,,,0.00,Rainwise IP-100,2013-01-14 07:18:00,
2013-01-14 02:22:00,49.0,48.0,29.91,SSW,202,9.0,15.0,97,0.00,,,0.00,Rainwise IP-100,2013-01-14 07:22:00,
2013-01-14 02:27:00,48.0,47.5,29.91,South,180,5.0,12.0,97,0.00,,,0.00,Rainwise IP-100,2013-01-14 07:27:00,
2013-01-14 02:32:00,48.0,47.5,29.91,SSW,202,7.0,10.0,97,0.00,,,0.00,Rainwise IP-100,2013-01-14 07:32:00,
2013-01-14 02:37:00,47.0,46.0,29.91,South,180,5.0,8.0,97,0.00,,,0.00,Rainwise IP-100,2013-01-14 07:37:00,
2013-01-14 02:42:00,47.0,46.0,29.90,SSE,157,4.0,7.0,97,0.00,,,0.00,Rainwise IP-100,2013-01-14 07:42:00,
2013-01-14 02:47:00,47.0,46.0,29.90,SSW,202,4.0,7.0,97,0.00,,,0.00,Rainwise IP-100,2013-01-14 07:47:00,
2013-01-14 02:52:00,47.0,46.0,29.89,SE,135,7.0,7.0,97,0.00,,,0.00,Rainwise IP-100,2013-01-14 07:52:00,
2013-01-14 02:57:00,47.0,46.0,29.89,SSE,157,4.0,7.0,97,0.00,,,0.00,Rainwise IP-100,2013-01-14 07:57:00,
2013-01-14 03:02:00,47.0,46.0,29.88,SE,135,5.0,6.0,97,0.00,,,0.00,Rainwise IP-100,2013-01-14 08:02:00,
2013-01-14 03:07:00,47.0,46.0,29.88,SE,135,4.0,6.0,97,0.00,,,0.00,Rainwise IP-100,2013-01-14 08:07:00,
2013-01-14 03:12:00,47.0,46.0,29.88,SE,135,2.0,6.0,97,0.00,,,0.00,Rainwise IP-100,2013-01-14 08:12:00,
2013-01-14 03:17:00,46.0,45.0,29.88,SE,135,3.0,5.0,97,0.00,,,0.00,Rainwise IP-100,2013-01-14 08:17:00,
2013-01-14 03:22:00,46.0,45.0,29.86,WNW,292,1.0,5.0,97,0.00,,,0.00,Rainwise IP-100,2013-01-14 08:22:00,
2013-01-14 03:27:00,45.0,44.0,29.86,NNW,337,3.0,6.0,97,0.00,,,0.00,Rainwise IP-100,2013-01-14 08:27:00,
2013-01-14 03:32:00,45.0,44.0,29.84,South,180,0.0,4.0,97,0.00,,,0.00,Rainwise IP-100,2013-01-14 08:32:00,
2013-01-14 03:37:00,44.0,43.0,29.84,ENE,67,5.0,6.0,97,0.00,,,0.00,Rainwise IP-100,2013-01-14 08:37:00,
2013-01-14 03:42:00,43.0,42.0,29.87,East,90,6.0,6.0,96,0.00,,,0.00,Rainwise IP-100,2013-01-14 08:42:00,
2013-01-14 03:47:00,43.0,42.0,29.87,East,90,4.0,8.0,96,0.00,,,0.00,Rainwise IP-100,2013-01-14 08:47:00,
2013-01-14 03:52:00,44.0,43.0,29.86,East,90,6.0,7.0,97,0.00,,,0.00,Rainwise IP-100,2013-01-14 08:52:00,
2013-01-14 03:55:00,44.0,43.0,29.86,East,90,6.0,7.0,97,0.00,,,0.00,Rainwise IP-100,2013-01-14 08:55:00,
2013-01-14 04:00:00,45.0,44.0,29.86,East,90,0.0,6.0,97,0.00,,,0.00,Rainwise IP-100,2013-01-14 09:00:00,
2013-01-14 04:05:00,45.0,44.0,29.86,East,90,0.0,0.0,97,0.00,,,0.00,Rainwise IP-100,2013-01-14 09:05:00,
2013-01-14 04:11:00,44.0,43.0,29.87,ESE,112,6.0,6.0,97,0.00,,,0.00,Rainwise IP-100,2013-01-14 09:11:00,
2013-01-14 04:16:00,44.0,43.0,29.85,East,90,6.0,7.0,97,0.00,,,0.00,Rainwise IP-100,2013-01-14 09:16:00,
2013-01-14 04:21:00,42.0,41.0,29.85,SSE,157,1.0,6.0,96,0.00,,,0.00,Rainwise IP-100,2013-01-14 09:21:00,
2013-01-14 04:26:00,42.0,41.0,29.86,SSE,157,4.0,4.0,96,0.00,,,0.00,Rainwise IP-100,2013-01-14 09:26:00,
2013-01-14 04:31:00,44.0,43.0,29.86,SE,135,4.0,6.0,97,0.00,,,0.00,Rainwise IP-100,2013-01-14 09:31:00,
2013-01-14 04:36:00,45.0,44.0,29.85,NNW,337,3.0,6.0,97,0.00,,,0.00,Rainwise IP-100,2013-01-14 09:36:00,
2013-01-14 04:41:00,43.0,42.0,29.85,East,90,5.0,7.0,96,0.00,,,0.00,Rainwise IP-100,2013-01-14 09:41:00,
2013-01-14 04:46:00,42.0,41.0,29.86,East,90,6.0,7.0,96,0.00,,,0.00,Rainwise IP-100,2013-01-14 09:46:00,
2013-01-14 04:51:00,42.0,41.0,29.86,East,90,1.0,7.0,96,0.00,,,0.00,Rainwise IP-100,2013-01-14 09:51:00,
2013-01-14 04:56:00,41.0,40.0,29.87,East,90,7.0,9.0,96,0.00,,,0.00,Rainwise IP-100,2013-01-14 09:56:00,
2013-01-14 05:01:00,42.0,41.0,29.86,ESE,112,5.0,8.0,96,0.00,,,0.00,Rainwise IP-100,2013-01-14 10:01:00,
2013-01-14 05:06:00,41.0,40.0,29.86,East,90,5.0,7.0,96,0.00,,,0.00,Rainwise IP-100,2013-01-14 10:06:00,
2013-01-14 05:11:00,40.0,39.0,29.88,East,90,4.0,7.0,96,0.00,,,0.00,Rainwise IP-100,2013-01-14 10:11:00,
2013-01-14 05:16:00,41.0,40.0,29.88,East,90,4.0,6.0,96,0.00,,,0.00,Rainwise IP-100,2013-01-14 10:16:00,
2013-01-14 05:21:00,44.0,43.0,29.86,ESE,112,6.0,12.0,97,0.00,,,0.00,Rainwise IP-100,2013-01-14 10:21:00,
2013-01-14 05:26:00,48.0,47.5,29.86,SW,225,12.0,17.0,97,0.00,,,0.00,Rainwise IP-100,2013-01-14 10:26:00,
2013-01-14 05:31:00,51.0,49.0,29.82,WSW,247,13.0,21.0,93,0.00,,,0.00,Rainwise IP-100,2013-01-14 10:31:00,
2013-01-14 05:36:00,53.0,50.0,29.82,SW,225,19.0,24.0,90,0.00,,,0.00,Rainwise IP-100,2013-01-14 10:36:00,
2013-01-14 05:41:00,54.0,50.5,29.82,WSW,247,17.0,37.0,89,0.00,,,0.00,Rainwise IP-100,2013-01-14 10:41:00,
2013-01-14 05:46:00,53.0,50.0,29.82,West,270,21.0,27.0,91,0.00,,,0.00,Rainwise IP-100,2013-01-14 10:46:00,
2013-01-14 05:51:00,53.0,50.0,29.82,WSW,247,13.0,28.0,91,0.00,,,0.00,Rainwise IP-100,2013-01-14 10:51:00,
2013-01-14 05:56:00,53.0,50.0,29.82,WSW,247,17.0,28.0,91,0.00,,,0.00,Rainwise IP-100,2013-01-14 10:56:00,
2013-01-14 06:01:00,53.0,50.0,29.83,WSW,247,15.0,22.0,90,0.00,,,0.00,Rainwise IP-100,2013-01-14 11:01:00,
2013-01-14 06:06:00,52.0,49.0,29.83,SW,225,8.0,20.0,91,0.00,,,0.00,Rainwise IP-100,2013-01-14 11:06:00,
2013-01-14 06:11:00,52.0,49.0,29.83,SW,225,15.0,26.0,90,0.00,,,0.00,Rainwise IP-100,2013-01-14 11:11:00,
2013-01-14 06:16:00,52.0,49.0,29.83,SW,225,12.0,23.0,89,0.00,,,0.00,Rainwise IP-100,2013-01-14 11:16:00,
2013-01-14 06:21:00,52.0,49.0,29.84,WSW,247,12.0,22.0,91,0.00,,,0.00,Rainwise IP-100,2013-01-14 11:21:00,
2013-01-14 06:26:00,52.0,49.0,29.84,West,270,16.0,23.0,91,0.00,,,0.00,Rainwise IP-100,2013-01-14 11:26:00,
2013-01-14 06:31:00,52.0,49.0,29.85,WSW,247,15.0,22.0,90,0.00,,,0.00,Rainwise IP-100,2013-01-14 11:31:00,
2013-01-14 06:36:00,53.0,49.0,29.85,SW,225,17.0,35.0,88,0.00,,,0.00,Rainwise IP-100,2013-01-14 11:36:00,
2013-01-14 06:41:00,53.0,49.0,29.85,West,270,20.0,28.0,88,0.00,,,0.00,Rainwise IP-100,2013-01-14 11:41:00,
2013-01-14 06:46:00,53.0,49.0,29.85,WSW,247,17.0,29.0,88,0.00,,,0.00,Rainwise IP-100,2013-01-14 11:46:00,
2013-01-14 06:51:00,53.0,49.0,29.88,WSW,247,15.0,28.0,88,0.00,,,0.00,Rainwise IP-100,2013-01-14 11:51:00,
2013-01-14 06:56:00,52.0,49.0,29.88,SW,225,17.0,28.0,89,0.00,,,0.00,Rainwise IP-100,2013-01-14 11:56:00,
2013-01-14 07:01:00,52.0,49.0,29.88,WSW,247,16.0,27.0,90,0.00,,,0.00,Rainwise IP-100,2013-01-14 12:01:00,
2013-01-14 07:06:00,52.0,49.0,29.88,SW,225,21.0,30.0,91,0.00,,,0.00,Rainwise IP-100,2013-01-14 12:06:00,
2013-01-14 07:11:00,52.0,49.0,29.90,WSW,247,13.0,28.0,91,0.00,,,0.00,Rainwise IP-100,2013-01-14 12:11:00,
2013-01-14 07:16:00,51.0,49.0,29.90,WSW,247,20.0,25.0,91,0.00,,,0.00,Rainwise IP-100,2013-01-14 12:16:00,
2013-01-14 07:21:00,51.0,49.0,29.91,SW,225,17.0,28.0,91,0.00,,,0.00,Rainwise IP-100,2013-01-14 12:21:00,
2013-01-14 07:26:00,51.0,49.0,29.91,SW,225,10.0,24.0,92,0.00,,,0.00,Rainwise IP-100,2013-01-14 12:26:00,
2013-01-14 07:31:00,51.0,49.0,29.92,WSW,247,12.0,20.0,91,0.00,,,0.00,Rainwise IP-100,2013-01-14 12:31:00,
2013-01-14 07:36:00,51.0,48.0,29.92,SW,225,11.0,17.0,90,0.00,,,0.00,Rainwise IP-100,2013-01-14 12:36:00,
2013-01-14 07:41:00,51.0,47.5,29.93,WSW,247,10.0,16.0,88,0.00,,,0.00,Rainwise IP-100,2013-01-14 12:41:00,
2013-01-14 07:46:00,51.0,47.5,29.93,West,270,12.0,16.0,88,0.00,,,0.00,Rainwise IP-100,2013-01-14 12:46:00,
2013-01-14 07:51:00,51.0,47.5,29.94,WSW,247,18.0,19.0,87,0.00,,,0.00,Rainwise IP-100,2013-01-14 12:51:00,
2013-01-14 07:56:00,50.0,46.0,29.94,SW,225,8.0,25.0,87,0.00,,,0.00,Rainwise IP-100,2013-01-14 12:56:00,
2013-01-14 08:01:00,51.0,47.5,29.95,WSW,247,7.0,17.0,87,0.00,,,0.00,Rainwise IP-100,2013-01-14 13:01:00,
2013-01-14 08:06:00,50.0,46.0,29.95,SSW,202,8.0,20.0,87,0.00,,,0.00,Rainwise IP-100,2013-01-14 13:06:00,
2013-01-14 08:11:00,50.0,46.0,29.96,WNW,292,4.0,20.0,86,0.00,,,0.00,Rainwise IP-100,2013-01-14 13:11:00,
2013-01-14 08:16:00,50.0,46.0,29.96,SSW,202,9.0,20.0,87,0.00,,,0.00,Rainwise IP-100,2013-01-14 13:16:00,
2013-01-14 08:21:00,50.0,46.0,29.96,WSW,247,12.0,22.0,86,0.00,,,0.00,Rainwise IP-100,2013-01-14 13:21:00,
2013-01-14 08:26:00,50.0,46.0,29.96,SW,225,7.0,19.0,86,0.00,,,0.00,Rainwise IP-100,2013-01-14 13:26:00,
2013-01-14 08:31:00,50.0,46.0,29.96,WSW,247,10.0,16.0,86,0.00,,,0.00,Rainwise IP-100,2013-01-14 13:31:00,
2013-01-14 08:36:00,50.0,47.0,29.96,SSE,157,7.0,16.0,88,0.00,,,0.00,Rainwise IP-100,2013-01-14 13:36:00,
2013-01-14 08:41:00,49.0,46.0,29.97,SW,225,3.0,10.0,88,0.00,,,0.00,Rainwise IP-100,2013-01-14 13:41:00,
2013-01-14 08:46:00,48.0,46.0,29.97,ESE,112,0.0,10.0,92,0.00,,,0.00,Rainwise IP-100,2013-01-14 13:46:00,
2013-01-14 08:51:00,48.0,47.0,29.97,East,90,1.0,8.0,93,0.00,,,0.00,Rainwise IP-100,2013-01-14 13:51:00,
2013-01-14 08:56:00,47.0,45.0,29.98,ESE,112,0.0,6.0,93,0.00,,,0.00,Rainwise IP-100,2013-01-14 13:56:00,
2013-01-14 09:01:00,47.0,45.0,29.98,SSE,157,10.0,12.0,93,0.00,,,0.00,Rainwise IP-100,2013-01-14 14:01:00,
2013-01-14 09:06:00,48.0,44.0,29.98,South,180,10.0,13.0,86,0.00,,,0.00,Rainwise IP-100,2013-01-14 14:06:00,
2013-01-14 09:11:00,49.0,45.0,29.99,SE,135,6.0,13.0,87,0.00,,,0.00,Rainwise IP-100,2013-01-14 14:11:00,
2013-01-14 09:16:00,48.0,45.0,29.99,SE,135,6.0,9.0,88,0.00,,,0.00,Rainwise IP-100,2013-01-14 14:16:00,
2013-01-14 09:21:00,49.0,43.0,30.00,SW,225,10.0,10.0,81,0.00,,,0.00,Rainwise IP-100,2013-01-14 14:21:00,
2013-01-14 09:26:00,49.0,43.0,30.00,SE,135,6.0,11.0,81,0.00,,,0.00,Rainwise IP-100,2013-01-14 14:26:00,
2013-01-14 09:31:00,50.0,44.0,30.00,SSE,157,12.0,16.0,80,0.00,,,0.00,Rainwise IP-100,2013-01-14 14:31:00,
2013-01-14 09:36:00,49.0,43.0,30.00,SE,135,5.0,13.0,80,0.00,,,0.00,Rainwise IP-100,2013-01-14 14:36:00,
2013-01-14 09:41:00,50.0,43.0,30.01,NNW,337,13.0,17.0,78,0.00,,,0.00,Rainwise IP-100,2013-01-14 14:41:00,
2013-01-14 09:46:00,49.0,42.0,30.01,WSW,247,7.0,20.0,78,0.00,,,0.00,Rainwise IP-100,2013-01-14 14:46:00,
2013-01-14 09:51:00,50.0,43.0,30.01,WSW,247,5.0,17.0,77,0.00,,,0.00,Rainwise IP-100,2013-01-14 14:51:00,
2013-01-14 09:56:00,49.0,42.0,30.01,NE,45,0.0,13.0,77,0.00,,,0.00,Rainwise IP-100,2013-01-14 14:56:00,
2013-01-14 10:01:00,49.0,42.0,30.03,SSE,157,7.0,11.0,77,0.00,,,0.00,Rainwise IP-100,2013-01-14 15:01:00,
2013-01-14 10:06:00,49.0,41.0,30.03,WSW,247,2.0,14.0,74,0.00,,,0.00,Rainwise IP-100,2013-01-14 15:06:00,
2013-01-14 10:11:00,49.0,41.0,30.04,East,90,1.0,10.0,74,0.00,,,0.00,Rainwise IP-100,2013-01-14 15:11:00,
2013-01-14 10:16:00,49.0,41.0,30.04,WNW,292,3.0,10.0,74,0.00,,,0.00,Rainwise IP-100,2013-01-14 15:16:00,
2013-01-14 10:21:00,49.0,41.0,30.05,North,360,1.0,6.0,75,0.00,,,0.00,Rainwise IP-100,2013-01-14 15:21:00,
2013-01-14 10:26:00,48.0,41.0,30.05,SE,135,8.0,12.0,75,0.00,,,0.00,Rainwise IP-100,2013-01-14 15:26:00,
2013-01-14 10:31:00,48.0,42.0,30.05,NW,315,8.0,13.0,78,0.00,,,0.00,Rainwise IP-100,2013-01-14 15:31:00,
2013-01-14 10:36:00,47.0,40.0,30.05,NW,315,7.0,10.0,78,0.00,,,0.00,Rainwise IP-100,2013-01-14 15:36:00,
2013-01-14 10:41:00,47.0,41.0,30.06,North,360,7.0,13.0,81,0.00,,,0.00,Rainwise IP-100,2013-01-14 15:41:00,
2013-01-14 10:46:00,47.0,41.0,30.06,NNW,337,6.0,17.0,80,0.00,,,0.00,Rainwise IP-100,2013-01-14 15:46:00,
2013-01-14 10:51:00,46.0,39.0,30.07,North,360,11.0,15.0,76,0.00,,,0.00,Rainwise IP-100,2013-01-14 15:51:00,
2013-01-14 10:56:00,46.0,39.0,30.07,NW,315,12.0,16.0,76,0.00,,,0.00,Rainwise IP-100,2013-01-14 15:56:00,
2013-01-14 11:01:00,46.0,39.0,30.07,NW,315,11.0,15.0,77,0.00,,,0.00,Rainwise IP-100,2013-01-14 16:01:00,
2013-01-14 11:06:00,45.0,38.0,30.07,ENE,67,7.0,14.0,78,0.00,,,0.00,Rainwise IP-100,2013-01-14 16:06:00,
2013-01-14 11:11:00,45.0,38.0,30.09,NNW,337,8.0,19.0,77,0.00,,,0.00,Rainwise IP-100,2013-01-14 16:11:00,
2013-01-14 11:16:00,45.0,38.0,30.09,NNE,22,6.0,10.0,78,0.00,,,0.00,Rainwise IP-100,2013-01-14 16:16:00,
2013-01-14 11:21:00,44.0,37.0,30.10,North,360,7.0,13.0,77,0.00,,,0.00,Rainwise IP-100,2013-01-14 16:21:00,
2013-01-14 11:26:00,44.0,37.0,30.10,NNW,337,9.0,11.0,77,0.00,,,0.00,Rainwise IP-100,2013-01-14 16:26:00,
2013-01-14 11:31:00,44.0,36.0,30.11,NW,315,9.0,12.0,74,0.00,,,0.00,Rainwise IP-100,2013-01-14 16:31:00,
2013-01-14 11:36:00,44.0,37.0,30.11,NW,315,2.0,15.0,75,0.00,,,0.00,Rainwise IP-100,2013-01-14 16:36:00,
2013-01-14 11:41:00,44.0,36.0,30.11,NNW,337,3.0,9.0,72,0.00,,,0.00,Rainwise IP-100,2013-01-14 16:41:00,
2013-01-14 11:46:00,44.0,35.0,30.11,NW,315,6.0,12.0,69,0.00,,,0.00,Rainwise IP-100,2013-01-14 16:46:00,
2013-01-14 11:51:00,45.0,36.0,30.11,ENE,67,5.0,7.0,70,0.00,,,0.00,Rainwise IP-100,2013-01-14 16:51:00,
2013-01-14 11:56:00,44.0,33.0,30.11,ENE,67,2.0,10.0,66,0.00,,,0.00,Rainwise IP-100,2013-01-14 16:56:00,
2013-01-14 12:01:00,44.0,33.0,30.11,North,360,14.0,14.0,65,0.00,,,0.00,Rainwise IP-100,2013-01-14 17:01:00,
2013-01-14 12:06:00,43.0,32.0,30.11,North,360,12.0,17.0,64,0.00,,,0.00,Rainwise IP-100,2013-01-14 17:06:00,
2013-01-14 12:11:00,43.0,32.0,30.12,NW,315,13.0,19.0,64,0.00,,,0.00,Rainwise IP-100,2013-01-14 17:11:00,
2013-01-14 12:16:00,43.0,32.0,30.12,NW,315,6.0,19.0,64,0.00,,,0.00,Rainwise IP-100,2013-01-14 17:16:00,
2013-01-14 12:21:00,43.0,32.0,30.13,NNW,337,7.0,16.0,64,0.00,,,0.00,Rainwise IP-100,2013-01-14 17:21:00,
2013-01-14 12:26:00,43.0,32.0,30.13,NW,315,9.0,16.0,64,0.00,,,0.00,Rainwise IP-100,2013-01-14 17:26:00,
2013-01-14 12:31:00,43.0,32.0,30.13,NNW,337,9.0,16.0,63,0.00,,,0.00,Rainwise IP-100,2013-01-14 17:31:00,
2013-01-14 12:36:00,42.0,31.0,30.13,NW,315,14.0,24.0,62,0.00,,,0.00,Rainwise IP-100,2013-01-14 17:36:00,
2013-01-14 12:41:00,43.0,32.0,30.13,WNW,292,6.0,20.0,63,0.00,,,0.00,Rainwise IP-100,2013-01-14 17:41:00,
2013-01-14 12:46:00,42.0,31.0,30.13,NW,315,10.0,19.0,62,0.00,,,0.00,Rainwise IP-100,2013-01-14 17:46:00,
2013-01-14 12:51:00,43.0,31.0,30.13,NNW,337,12.0,18.0,61,0.00,,,0.00,Rainwise IP-100,2013-01-14 17:51:00,
2013-01-14 12:56:00,42.0,29.0,30.13,NW,315,10.0,21.0,61,0.00,,,0.00,Rainwise IP-100,2013-01-14 17:56:00,
2013-01-14 13:01:00,43.0,31.0,30.13,WNW,292,9.0,17.0,59,0.00,,,0.00,Rainwise IP-100,2013-01-14 18:01:00,
2013-01-14 13:06:00,43.0,29.0,30.13,NW,315,7.0,16.0,57,0.00,,,0.00,Rainwise IP-100,2013-01-14 18:06:00,
2013-01-14 13:11:00,43.0,29.0,30.13,North,360,8.0,14.0,56,0.00,,,0.00,Rainwise IP-100,2013-01-14 18:11:00,
2013-01-14 13:16:00,44.0,29.0,30.14,North,360,6.0,11.0,55,0.00,,,0.00,Rainwise IP-100,2013-01-14 18:16:00,
2013-01-14 13:21:00,44.0,28.0,30.14,North,360,7.0,13.0,53,0.00,,,0.00,Rainwise IP-100,2013-01-14 18:21:00,
2013-01-14 13:26:00,44.0,28.0,30.15,North,360,6.0,9.0,53,0.00,,,0.00,Rainwise IP-100,2013-01-14 18:26:00,
2013-01-14 13:31:00,44.0,28.0,30.15,NE,45,7.0,13.0,52,0.00,,,0.00,Rainwise IP-100,2013-01-14 18:31:00,
2013-01-14 13:36:00,43.0,28.0,30.15,NNW,337,6.0,17.0,53,0.00,,,0.00,Rainwise IP-100,2013-01-14 18:36:00,
2013-01-14 13:41:00,43.0,28.0,30.16,NE,45,2.0,15.0,54,0.00,,,0.00,Rainwise IP-100,2013-01-14 18:41:00,
2013-01-14 13:46:00,43.0,28.0,30.16,NNW,337,11.0,16.0,52,0.00,,,0.00,Rainwise IP-100,2013-01-14 18:46:00,
2013-01-14 13:51:00,42.0,26.0,30.17,North,360,15.0,16.0,53,0.00,,,0.00,Rainwise IP-100,2013-01-14 18:51:00,
2013-01-14 13:56:00,42.0,28.0,30.17,NW,315,8.0,19.0,54,0.00,,,0.00,Rainwise IP-100,2013-01-14 18:56:00,
2013-01-14 14:01:00,42.0,28.0,30.17,NNW,337,11.0,14.0,54,0.00,,,0.00,Rainwise IP-100,2013-01-14 19:01:00,
2013-01-14 14:06:00,41.0,26.0,30.17,NW,315,15.0,17.0,54,0.00,,,0.00,Rainwise IP-100,2013-01-14 19:06:00,
2013-01-14 14:11:00,41.0,26.0,30.17,NW,315,12.0,17.0,54,0.00,,,0.00,Rainwise IP-100,2013-01-14 19:11:00,
2013-01-14 14:16:00,41.0,26.0,30.19,WNW,292,12.0,17.0,54,0.00,,,0.00,Rainwise IP-100,2013-01-14 19:16:00,
2013-01-14 14:21:00,41.0,26.0,30.19,North,360,7.0,23.0,55,0.00,,,0.00,Rainwise IP-100,2013-01-14 19:21:00,
2013-01-14 14:26:00,40.0,26.0,30.18,NW,315,9.0,19.0,54,0.00,,,0.00,Rainwise IP-100,2013-01-14 19:26:00,
2013-01-14 14:31:00,41.0,26.0,30.18,NNW,337,12.0,16.0,54,0.00,,,0.00,Rainwise IP-100,2013-01-14 19:31:00,
2013-01-14 14:36:00,41.0,26.0,30.19,NNW,337,7.0,19.0,54,0.00,,,0.00,Rainwise IP-100,2013-01-14 19:36:00,
2013-01-14 14:41:00,40.0,26.0,30.19,NW,315,12.0,16.0,54,0.00,,,0.00,Rainwise IP-100,2013-01-14 19:41:00,
2013-01-14 14:46:00,41.0,26.0,30.20,North,360,3.0,16.0,54,0.00,,,0.00,Rainwise IP-100,2013-01-14 19:46:00,
2013-01-14 14:51:00,41.0,26.0,30.20,NE,45,6.0,15.0,54,0.00,,,0.00,Rainwise IP-100,2013-01-14 19:51:00,
2013-01-14 14:56:00,42.0,28.0,30.20,NNW,337,7.0,10.0,54,0.00,,,0.00,Rainwise IP-100,2013-01-14 19:56:00,
2013-01-14 15:01:00,42.0,28.0,30.20,North,360,7.0,16.0,55,0.00,,,0.00,Rainwise IP-100,2013-01-14 20:01:00,
2013-01-14 15:06:00,41.0,28.0,30.21,ENE,67,6.0,15.0,56,0.00,,,0.00,Rainwise IP-100,2013-01-14 20:06:00,
2013-01-14 15:11:00,41.0,28.0,30.21,NNE,22,9.0,13.0,56,0.00,,,0.00,Rainwise IP-100,2013-01-14 20:11:00,
2013-01-14 15:16:00,41.0,28.0,30.22,North,360,15.0,15.0,57,0.00,,,0.00,Rainwise IP-100,2013-01-14 20:16:00,
2013-01-14 15:21:00,40.0,26.0,30.22,NW,315,9.0,16.0,56,0.00,,,0.00,Rainwise IP-100,2013-01-14 20:21:00,
2013-01-14 15:26:00,39.0,26.0,30.22,NW,315,8.0,20.0,57,0.00,,,0.00,Rainwise IP-100,2013-01-14 20:26:00,
2013-01-14 15:31:00,39.0,26.0,30.22,NW,315,12.0,17.0,58,0.00,,,0.00,Rainwise IP-100,2013-01-14 20:31:00,
2013-01-14 15:36:00,39.0,26.0,30.24,NNW,337,7.0,16.0,57,0.00,,,0.00,Rainwise IP-100,2013-01-14 20:36:00,
2013-01-14 15:41:00,38.0,24.0,30.24,NW,315,7.0,17.0,56,0.00,,,0.00,Rainwise IP-100,2013-01-14 20:41:00,
2013-01-14 15:46:00,38.0,24.0,30.24,NW,315,12.0,16.0,57,0.00,,,0.00,Rainwise IP-100,2013-01-14 20:46:00,
2013-01-14 15:51:00,38.0,24.0,30.24,WNW,292,10.0,14.0,57,0.00,,,0.00,Rainwise IP-100,2013-01-14 20:51:00,
2013-01-14 15:56:00,38.0,24.0,30.25,NNW,337,9.0,13.0,57,0.00,,,0.00,Rainwise IP-100,2013-01-14 20:56:00,
2013-01-14 16:01:00,38.0,24.0,30.25,NW,315,15.0,15.0,58,0.00,,,0.00,Rainwise IP-100,2013-01-14 21:01:00,
2013-01-14 16:06:00,38.0,26.0,30.25,NW,315,7.0,22.0,59,0.00,,,0.00,Rainwise IP-100,2013-01-14 21:06:00,
2013-01-14 16:11:00,37.0,24.0,30.25,North,360,9.0,10.0,60,0.00,,,0.00,Rainwise IP-100,2013-01-14 21:11:00,
2013-01-14 16:16:00,37.0,24.0,30.26,North,360,4.0,16.0,60,0.00,,,0.00,Rainwise IP-100,2013-01-14 21:16:00,
2013-01-14 16:21:00,37.0,26.0,30.26,NNW,337,9.0,13.0,62,0.00,,,0.00,Rainwise IP-100,2013-01-14 21:21:00,
2013-01-14 16:26:00,36.0,24.0,30.25,NW,315,6.0,13.0,62,0.00,,,0.00,Rainwise IP-100,2013-01-14 21:26:00,
2013-01-14 16:31:00,36.0,24.0,30.25,North,360,7.0,8.0,64,0.00,,,0.00,Rainwise IP-100,2013-01-14 21:31:00,
2013-01-14 16:36:00,36.0,24.0,30.25,North,360,6.0,11.0,64,0.00,,,0.00,Rainwise IP-100,2013-01-14 21:36:00,
2013-01-14 16:41:00,35.0,24.0,30.25,North,360,6.0,13.0,65,0.00,,,0.00,Rainwise IP-100,2013-01-14 21:41:00,
2013-01-14 16:46:00,35.0,24.0,30.25,North,360,5.0,12.0,65,0.00,,,0.00,Rainwise IP-100,2013-01-14 21:46:00,
2013-01-14 16:51:00,35.0,24.0,30.25,NNW,337,9.0,9.0,65,0.00,,,0.00,Rainwise IP-100,2013-01-14 21:51:00,
2013-01-14 16:56:00,35.0,24.0,30.25,North,360,3.0,10.0,65,0.00,,,0.00,Rainwise IP-100,2013-01-14 21:56:00,
2013-01-14 17:01:00,35.0,24.0,30.25,NNW,337,4.0,8.0,67,0.00,,,0.00,Rainwise IP-100,2013-01-14 22:01:00,
2013-01-14 17:06:00,34.0,26.0,30.25,NW,315,5.0,8.0,68,0.00,,,0.00,Rainwise IP-100,2013-01-14 22:06:00,
2013-01-14 17:11:00,34.0,26.0,30.25,NW,315,9.0,12.0,68,0.00,,,0.00,Rainwise IP-100,2013-01-14 22:11:00,
2013-01-14 17:16:00,34.0,26.0,30.25,North,360,7.0,12.0,68,0.00,,,0.00,Rainwise IP-100,2013-01-14 22:16:00,
2013-01-14 17:21:00,34.0,26.0,30.25,NNW,337,6.0,13.0,69,0.00,,,0.00,Rainwise IP-100,2013-01-14 22:21:00,
2013-01-14 17:26:00,34.0,26.0,30.25,North,360,7.0,10.0,70,0.00,,,0.00,Rainwise IP-100,2013-01-14 22:26:00,
2013-01-14 17:31:00,34.0,26.0,30.25,NNW,337,8.0,13.0,69,0.00,,,0.00,Rainwise IP-100,2013-01-14 22:31:00,
2013-01-14 17:36:00,34.0,26.0,30.25,NNW,337,7.0,13.0,70,0.00,,,0.00,Rainwise IP-100,2013-01-14 22:36:00,
2013-01-14 17:41:00,34.0,26.0,30.25,NNW,337,11.0,15.0,69,0.00,,,0.00,Rainwise IP-100,2013-01-14 22:41:00,
2013-01-14 17:46:00,34.0,26.0,30.25,NW,315,7.0,13.0,69,0.00,,,0.00,Rainwise IP-100,2013-01-14 22:46:00,
2013-01-14 17:51:00,33.0,24.0,30.25,NW,315,5.0,13.0,70,0.00,,,0.00,Rainwise IP-100,2013-01-14 22:51:00,
2013-01-14 17:56:00,33.0,24.0,30.25,NNW,337,6.0,7.0,70,0.00,,,0.00,Rainwise IP-100,2013-01-14 22:56:00,
2013-01-14 18:01:00,33.0,24.0,30.25,NNW,337,4.0,13.0,69,0.00,,,0.00,Rainwise IP-100,2013-01-14 23:01:00,
2013-01-14 18:06:00,33.0,24.0,30.26,North,360,3.0,7.0,71,0.00,,,0.00,Rainwise IP-100,2013-01-14 23:06:00,
2013-01-14 18:11:00,32.0,24.0,30.26,NNE,22,1.0,6.0,71,0.00,,,0.00,Rainwise IP-100,2013-01-14 23:11:00,
2013-01-14 18:16:00,32.0,24.0,30.27,North,360,1.0,7.0,70,0.00,,,0.00,Rainwise IP-100,2013-01-14 23:16:00,
2013-01-14 18:21:00,32.0,24.0,30.27,NW,315,5.0,7.0,71,0.00,,,0.00,Rainwise IP-100,2013-01-14 23:21:00,
2013-01-14 18:26:00,32.0,24.0,30.27,North,360,3.0,9.0,70,0.00,,,0.00,Rainwise IP-100,2013-01-14 23:26:00,
2013-01-14 18:31:00,32.0,24.0,30.27,East,90,1.0,9.0,71,0.00,,,0.00,Rainwise IP-100,2013-01-14 23:31:00,
2013-01-14 18:36:00,31.0,23.0,30.28,North,360,4.0,9.0,70,0.00,,,0.00,Rainwise IP-100,2013-01-14 23:36:00,
2013-01-14 18:41:00,32.0,23.0,30.28,NNW,337,5.0,10.0,68,0.00,,,0.00,Rainwise IP-100,2013-01-14 23:41:00,
2013-01-14 18:46:00,32.0,23.0,30.29,NNW,337,3.0,8.0,69,0.00,,,0.00,Rainwise IP-100,2013-01-14 23:46:00,
2013-01-14 18:51:00,32.0,23.0,30.29,NNW,337,6.0,7.0,68,0.00,,,0.00,Rainwise IP-100,2013-01-14 23:51:00,
2013-01-14 18:56:00,32.0,23.0,30.29,NW,315,9.0,10.0,68,0.00,,,0.00,Rainwise IP-100,2013-01-14 23:56:00,
2013-01-14 19:01:00,32.0,23.0,30.29,NNW,337,4.0,13.0,67,0.00,,,0.00,Rainwise IP-100,2013-01-15 00:01:00,
2013-01-14 19:06:00,32.0,23.0,30.31,NW,315,9.0,15.0,66,0.00,,,0.00,Rainwise IP-100,2013-01-15 00:06:00,
2013-01-14 19:11:00,33.0,23.0,30.31,NW,315,7.0,13.0,65,0.00,,,0.00,Rainwise IP-100,2013-01-15 00:11:00,
2013-01-14 19:16:00,33.0,23.0,30.31,NNW,337,5.0,12.0,65,0.00,,,0.00,Rainwise IP-100,2013-01-15 00:16:00,
2013-01-14 19:21:00,33.0,23.0,30.31,NNW,337,7.0,15.0,65,0.00,,,0.00,Rainwise IP-100,2013-01-15 00:21:00,
2013-01-14 19:26:00,33.0,23.0,30.31,NW,315,8.0,13.0,65,0.00,,,0.00,Rainwise IP-100,2013-01-15 00:26:00,
2013-01-14 19:31:00,33.0,23.0,30.31,NW,315,9.0,13.0,65,0.00,,,0.00,Rainwise IP-100,2013-01-15 00:31:00,
2013-01-14 19:36:00,32.0,23.0,30.29,NNW,337,7.0,13.0,66,0.00,,,0.00,Rainwise IP-100,2013-01-15 00:36:00,
2013-01-14 19:41:00,32.0,23.0,30.29,East,90,4.0,10.0,67,0.00,,,0.00,Rainwise IP-100,2013-01-15 00:41:00,
2013-01-14 19:46:00,31.0,23.0,30.29,NW,315,1.0,7.0,69,0.00,,,0.00,Rainwise IP-100,2013-01-15 00:46:00,
2013-01-14 19:51:00,31.0,23.0,30.29,NE,45,3.0,7.0,69,0.00,,,0.00,Rainwise IP-100,2013-01-15 00:51:00,
2013-01-14 19:56:00,31.0,23.0,30.32,SW,225,1.0,6.0,68,0.00,,,0.00,Rainwise IP-100,2013-01-15 00:56:00,
2013-01-14 20:01:00,31.0,21.0,30.32,NE,45,2.0,5.0,67,0.00,,,0.00,Rainwise IP-100,2013-01-15 01:01:00,
2013-01-14 20:06:00,32.0,23.0,30.33,NNE,22,7.0,9.0,66,0.00,,,0.00,Rainwise IP-100,2013-01-15 01:06:00,
2013-01-14 20:11:00,32.0,23.0,30.33,North,360,7.0,9.0,67,0.00,,,0.00,Rainwise IP-100,2013-01-15 01:11:00,
2013-01-14 20:16:00,32.0,23.0,30.32,East,90,2.0,12.0,66,0.00,,,0.00,Rainwise IP-100,2013-01-15 01:16:00,
2013-01-14 20:21:00,32.0,23.0,30.32,North,360,6.0,17.0,67,0.00,,,0.00,Rainwise IP-100,2013-01-15 01:21:00,
2013-01-14 20:26:00,32.0,23.0,30.33,ENE,67,4.0,10.0,66,0.00,,,0.00,Rainwise IP-100,2013-01-15 01:26:00,
2013-01-14 20:31:00,32.0,23.0,30.33,East,90,1.0,9.0,66,0.00,,,0.00,Rainwise IP-100,2013-01-15 01:31:00,
2013-01-14 20:36:00,32.0,23.0,30.33,East,90,0.0,4.0,68,0.00,,,0.00,Rainwise IP-100,2013-01-15 01:36:00,
2013-01-14 20:41:00,31.0,23.0,30.33,ESE,112,1.0,4.0,68,0.00,,,0.00,Rainwise IP-100,2013-01-15 01:41:00,
2013-01-14 20:46:00,31.0,21.0,30.33,NE,45,6.0,6.0,67,0.00,,,0.00,Rainwise IP-100,2013-01-15 01:46:00,
2013-01-14 20:51:00,32.0,23.0,30.33,NNE,22,2.0,13.0,66,0.00,,,0.00,Rainwise IP-100,2013-01-15 01:51:00,
2013-01-14 20:56:00,32.0,23.0,30.33,North,360,5.0,11.0,67,0.00,,,0.00,Rainwise IP-100,2013-01-15 01:56:00,
2013-01-14 21:01:00,32.0,23.0,30.33,NE,45,9.0,9.0,68,0.00,,,0.00,Rainwise IP-100,2013-01-15 02:01:00,
2013-01-14 21:06:00,32.0,23.0,30.32,NNE,22,6.0,12.0,68,0.00,,,0.00,Rainwise IP-100,2013-01-15 02:06:00,
2013-01-14 21:11:00,32.0,23.0,30.32,North,360,8.0,10.0,68,0.00,,,0.00,Rainwise IP-100,2013-01-15 02:11:00,
2013-01-14 21:16:00,32.0,23.0,30.32,North,360,6.0,11.0,69,0.00,,,0.00,Rainwise IP-100,2013-01-15 02:16:00,
2013-01-14 21:21:00,31.0,23.0,30.32,NNE,22,6.0,7.0,70,0.00,,,0.00,Rainwise IP-100,2013-01-15 02:21:00,
2013-01-14 21:26:00,32.0,24.0,30.31,ENE,67,3.0,9.0,70,0.00,,,0.00,Rainwise IP-100,2013-01-15 02:26:00,
2013-01-14 21:31:00,32.0,24.0,30.31,North,360,6.0,12.0,70,0.00,,,0.00,Rainwise IP-100,2013-01-15 02:31:00,
2013-01-14 21:36:00,32.0,24.0,30.31,North,360,7.0,11.0,70,0.00,,,0.00,Rainwise IP-100,2013-01-15 02:36:00,
2013-01-14 21:41:00,32.0,24.0,30.31,North,360,6.0,12.0,71,0.00,,,0.00,Rainwise IP-100,2013-01-15 02:41:00,
2013-01-14 21:46:00,31.0,23.0,30.31,North,360,6.0,12.0,71,0.00,,,0.00,Rainwise IP-100,2013-01-15 02:46:00,
2013-01-14 21:51:00,31.0,23.0,30.31,NNW,337,4.0,10.0,72,0.00,,,0.00,Rainwise IP-100,2013-01-15 02:51:00,
2013-01-14 21:56:00,32.0,24.0,30.31,NNE,22,10.0,10.0,71,0.00,,,0.00,Rainwise IP-100,2013-01-15 02:56:00,
2013-01-14 22:01:00,32.0,24.0,30.31,North,360,7.0,14.0,71,0.00,,,0.00,Rainwise IP-100,2013-01-15 03:01:00,
2013-01-14 22:06:00,31.0,23.0,30.30,NNE,22,6.0,10.0,72,0.00,,,0.00,Rainwise IP-100,2013-01-15 03:06:00,
2013-01-14 22:11:00,31.0,23.0,30.30,North,360,7.0,11.0,71,0.00,,,0.00,Rainwise IP-100,2013-01-15 03:11:00,
2013-01-14 22:16:00,31.0,23.0,30.31,NNE,22,10.0,10.0,72,0.00,,,0.00,Rainwise IP-100,2013-01-15 03:16:00,
2013-01-14 22:21:00,31.0,23.0,30.31,North,360,9.0,17.0,69,0.00,,,0.00,Rainwise IP-100,2013-01-15 03:21:00,
2013-01-14 22:26:00,31.0,23.0,30.29,NE,45,3.0,12.0,70,0.00,,,0.00,Rainwise IP-100,2013-01-15 03:26:00,
2013-01-14 22:31:00,31.0,23.0,30.29,North,360,13.0,13.0,70,0.00,,,0.00,Rainwise IP-100,2013-01-15 03:31:00,
2013-01-14 22:36:00,31.0,23.0,30.31,North,360,1.0,14.0,69,0.00,,,0.00,Rainwise IP-100,2013-01-15 03:36:00,
2013-01-14 22:41:00,31.0,23.0,30.31,WNW,292,0.0,6.0,70,0.00,,,0.00,Rainwise IP-100,2013-01-15 03:41:00,
2013-01-14 22:46:00,31.0,23.0,30.31,WNW,292,5.0,9.0,69,0.00,,,0.00,Rainwise IP-100,2013-01-15 03:46:00,
2013-01-14 22:51:00,31.0,23.0,30.31,NNW,337,5.0,8.0,69,0.00,,,0.00,Rainwise IP-100,2013-01-15 03:51:00,
2013-01-14 22:56:00,31.0,23.0,30.32,North,360,6.0,7.0,70,0.00,,,0.00,Rainwise IP-100,2013-01-15 03:56:00,
2013-01-14 23:01:00,31.0,23.0,30.32,North,360,5.0,7.0,70,0.00,,,0.00,Rainwise IP-100,2013-01-15 04:01:00,
2013-01-14 23:06:00,31.0,23.0,30.33,NNW,337,7.0,11.0,69,0.00,,,0.00,Rainwise IP-100,2013-01-15 04:06:00,
2013-01-14 23:11:00,31.0,23.0,30.33,North,360,3.0,9.0,72,0.00,,,0.00,Rainwise IP-100,2013-01-15 04:11:00,
2013-01-14 23:16:00,31.0,23.0,30.33,ENE,67,4.0,7.0,69,0.00,,,0.00,Rainwise IP-100,2013-01-15 04:16:00,
2013-01-14 23:21:00,31.0,23.0,30.33,NE,45,7.0,9.0,70,0.00,,,0.00,Rainwise IP-100,2013-01-15 04:21:00,
2013-01-14 23:26:00,31.0,23.0,30.33,NNW,337,10.0,12.0,68,0.00,,,0.00,Rainwise IP-100,2013-01-15 04:26:00,
2013-01-14 23:31:00,31.0,23.0,30.33,NE,45,6.0,11.0,69,0.00,,,0.00,Rainwise IP-100,2013-01-15 04:31:00,
2013-01-14 23:36:00,31.0,23.0,30.34,NNW,337,5.0,12.0,69,0.00,,,0.00,Rainwise IP-100,2013-01-15 04:36:00,
2013-01-14 23:41:00,31.0,23.0,30.34,NW,315,3.0,8.0,69,0.00,,,0.00,Rainwise IP-100,2013-01-15 04:41:00,
2013-01-14 23:46:00,31.0,23.0,30.35,NNW,337,7.0,10.0,68,0.00,,,0.00,Rainwise IP-100,2013-01-15 04:46:00,
2013-01-14 23:51:00,31.0,23.0,30.35,NW,315,15.0,15.0,68,0.00,,,0.00,Rainwise IP-100,2013-01-15 04:51:00,
2013-01-14 23:56:00,31.0,23.0,30.35,NW,315,9.0,16.0,69,0.00,,,0.00,Rainwise IP-100,2013-01-15 04:56:00,